カタログに戻る

COSMOS 839 DEB

運用中UNKNOWN
NORAD 10620·DEBRIS·🇷🇺 Russia

打ち上げ Jul 8, 1976 から Plesetsk Cosmodrome

Loading…

次のパス (今後24時間)

TLE

最新Source: Space-Track

元期: Sep 14, 2026, 05:24 UTC

1 10620U 76067AU  26257.22529079  .00000718  00000-0  26520-2 0  9996
2 10620  65.9550 351.2644 0652923 268.8622 107.1286 12.42439214266457

AllMySatでCOSMOS 839 DEBをリアルタイム追跡

Download on the App Store